Regional Weather Roundup
Issued by NWS Midland/Odessa, TX

Skip options and go directly to product.
Home | Oldest Version | Previous Version | Current Version | All | Text Only | Save Text | Print | Product List | Glossary Off

Skip product version selection by date and time.   

946
ASUS44 KMAF 301810
RWRMAF
MIDLAND AREA WEATHER ROUNDUP
NATIONAL WEATHER SERVICE MIDLAND TX
100 PM CDT SAT AUG 30 2014

...IN SOUTHWEST TEXAS AND SOUTHEAST NEW MEXICO...

CITY           SKY/WX    TMP DP  RH WIND       PRES   REMARKS
ALPINE         MOSUNNY   86  46  24 NW6       30.18F
ANDREWS        FAIR      90  49  24 CALM      30.06F
ARTESIA        NOT AVBL
BIG SPRING     SUNNY     88  61  40 NW6       30.06F
CARLSBAD       SUNNY     92  51  24 S8        30.04F
DRYDEN           N/A     95  66  38 MISG      29.97F
FORT STOCKTON  MOSUNNY   90  54  29 CALM      30.03F
GUAD PASS      SUNNY     87  49  26 E9G18     30.22F
HOBBS          MOSUNNY   88  48  25 S6        30.10F
MARFA          MOSUNNY   84  54  34 N7        30.18F
MIDLAND AIRPK  NOT AVBL
MIDLAND INTL   SUNNY     91  60  35 E8        30.04F
ODESSA         SUNNY     89  53  29 W6        30.05F
PECOS          SUNNY     91  57  31 E6        30.01F
PRESIDIO       FAIR      91  60  35 NW3       30.01F
SEMINOLE       SUNNY     91  51  25 SE7       30.08F
SNYDER         SUNNY     90  55  30 NE9       30.03F
WINK           SUNNY     95  47  19 VRB6      30.00F
$$
...OTHER STATIONS IN TEXAS...

CITY           SKY/WX    TMP DP  RH WIND       PRES   REMARKS
ABILENE        MOSUNNY   93  67  42 NW9       29.99F
AMARILLO       SUNNY     89  50  26 SW8G20    30.08F
AUSTIN         PTSUNNY   90  70  51 N6        29.94F
BROWNSVILLE    CLOUDY    85  76  74 SE10      29.91S
CORPUS CHRISTI CLOUDY    81  76  84 SE5       29.92S
DALLAS FTW     PTSUNNY   88  73  61 E8        29.95F
DEL RIO        SUNNY     93  69  45 SE8       29.91F
EL PASO        MOSUNNY   88  48  25 S7        30.07F
HOUSTON INT    PTSUNNY   88  72  58 W5        29.94F
LUBBOCK        MOSUNNY   87  58  37 VRB6      30.07F
SAN ANGELO     SUNNY     93  67  42 VRB6      29.99F
SAN ANTONIO    MOSUNNY   92  69  47 VRB3      29.94F
WACO           MOSUNNY   88  70  55 NE7       29.96F
WICHITA FALLS  NOT AVBL
$$
...OTHER LOCATIONS IN NEW MEXICO...

CITY           SKY/WX    TMP DP  RH WIND       PRES   REMARKS
ALAMAGORDO     SUNNY     90  54  29 S12       30.10F
ALBUQUERQUE    MOSUNNY   80  44  27 SW8       30.17F
CANNON AFB     SUNNY     87  53  31 SW8       30.11F
CLOVIS           N/A     88  48  25 SW9       30.13F
HOLLOMAN AFB   SUNNY     91  50  24 S12       30.07F
ROSWELL        SUNNY     88  60  38 S10       30.06F
RUIDOSO        SUNNY     79  43  27 NE8       30.30F
SANTA FE       SUNNY     79  41  25 S10G16    30.22F
TRUTH OR CONSE SUNNY     85  46  25 VRB3      30.13F
TUCUMCARI      MOSUNNY   91  50  24 SW14      30.06F
$$

USA.gov is the U.S. government's official web portal to all federal, state and local government web resources and services.